Year,Month,Day,Hour,Minute,Value (Times are PST for temperature in C)
2005,06,21,00,00,17.40
2005,06,21,00,01,17.30
2005,06,21,00,02,17.30
2005,06,21,00,03,17.30
2005,06,21,00,04,17.30
2005,06,21,00,05,17.30
2005,06,21,00,06,17.20
2005,06,21,00,07,17.20
2005,06,21,00,08,17.20
2005,06,21,00,09,17.10
2005,06,21,00,10,17.10
2005,06,21,00,11,17.10
2005,06,21,00,12,17.10
2005,06,21,00,13,17.00
2005,06,21,00,14,17.00
2005,06,21,00,15,17.00
2005,06,21,00,16,17.00
2005,06,21,00,17,17.00
2005,06,21,00,18,16.90
2005,06,21,00,19,16.90
2005,06,21,00,20,16.90
2005,06,21,00,21,16.90
2005,06,21,00,22,16.80
2005,06,21,00,23,16.80
2005,06,21,00,24,16.80
2005,06,21,00,25,16.80
2005,06,21,00,26,16.90
2005,06,21,00,27,16.90
2005,06,21,00,28,17.00
2005,06,21,00,29,17.00
2005,06,21,00,30,17.10
2005,06,21,00,31,17.10
2005,06,21,00,32,17.20
2005,06,21,00,33,17.30
2005,06,21,00,34,17.30
2005,06,21,00,35,17.40
2005,06,21,00,36,17.50
2005,06,21,00,37,17.50
2005,06,21,00,38,17.60
2005,06,21,00,39,17.70
2005,06,21,00,40,17.70
2005,06,21,00,41,17.70
2005,06,21,00,42,17.80
2005,06,21,00,43,17.80
2005,06,21,00,44,17.80
2005,06,21,00,45,17.90
2005,06,21,00,46,17.90
2005,06,21,00,47,17.90
2005,06,21,00,48,17.90
2005,06,21,00,49,17.90
2005,06,21,00,50,17.90
2005,06,21,00,51,17.90
2005,06,21,00,52,17.90
2005,06,21,00,53,17.80
2005,06,21,00,54,17.80
2005,06,21,00,55,17.80
2005,06,21,00,56,17.70
2005,06,21,00,57,17.70
2005,06,21,00,58,17.70
2005,06,21,00,59,17.60
2005,06,21,01,00,17.60
2005,06,21,01,01,17.60
2005,06,21,01,02,17.50
2005,06,21,01,03,17.50
2005,06,21,01,04,17.50
2005,06,21,01,05,17.50
2005,06,21,01,06,17.60
2005,06,21,01,07,17.60
2005,06,21,01,08,17.60
2005,06,21,01,09,17.60
2005,06,21,01,10,17.60
2005,06,21,01,11,17.60
2005,06,21,01,12,17.60
2005,06,21,01,13,17.60
2005,06,21,01,14,17.60
2005,06,21,01,15,17.60
2005,06,21,01,16,17.50
2005,06,21,01,17,17.50
2005,06,21,01,18,17.50
2005,06,21,01,19,17.40
2005,06,21,01,20,17.40
2005,06,21,01,21,17.40
2005,06,21,01,22,17.30
2005,06,21,01,23,17.30
2005,06,21,01,24,17.20
2005,06,21,01,25,17.20
2005,06,21,01,26,17.10
2005,06,21,01,27,17.10
2005,06,21,01,28,16.90
2005,06,21,01,29,16.80
2005,06,21,01,30,16.70
2005,06,21,01,31,16.70
2005,06,21,01,32,16.60
2005,06,21,01,33,16.60
2005,06,21,01,34,16.50
2005,06,21,01,35,16.40
2005,06,21,01,36,16.40
2005,06,21,01,37,16.40
2005,06,21,01,38,16.30
2005,06,21,01,39,16.30
2005,06,21,01,40,16.20
2005,06,21,01,41,16.20
2005,06,21,01,42,16.10
2005,06,21,01,43,16.10
2005,06,21,01,44,16.10
2005,06,21,01,45,16.10
2005,06,21,01,46,16.10
2005,06,21,01,47,16.10
2005,06,21,01,48,16.10
2005,06,21,01,49,16.10
2005,06,21,01,50,16.10
2005,06,21,01,51,16.10
2005,06,21,01,52,16.10
2005,06,21,01,53,16.10
2005,06,21,01,54,16.00
2005,06,21,01,55,15.90
2005,06,21,01,56,15.90
2005,06,21,01,57,15.90
2005,06,21,01,58,15.90
2005,06,21,01,59,15.90
2005,06,21,02,00,15.90
2005,06,21,02,01,15.80
2005,06,21,02,02,15.80
2005,06,21,02,03,15.80
2005,06,21,02,04,15.80
2005,06,21,02,05,15.80
2005,06,21,02,06,15.80
2005,06,21,02,07,15.80
2005,06,21,02,08,15.80
2005,06,21,02,09,15.80
2005,06,21,02,10,15.80
2005,06,21,02,11,15.80
2005,06,21,02,12,15.80
2005,06,21,02,13,15.80
2005,06,21,02,14,15.90
2005,06,21,02,15,15.90
2005,06,21,02,16,15.90
2005,06,21,02,17,15.90
2005,06,21,02,18,15.90
2005,06,21,02,19,15.90
2005,06,21,02,20,15.90
2005,06,21,02,21,15.90
2005,06,21,02,22,15.90
2005,06,21,02,23,15.90
2005,06,21,02,24,15.90
2005,06,21,02,25,15.90
2005,06,21,02,26,15.90
2005,06,21,02,27,15.90
2005,06,21,02,28,15.90
2005,06,21,02,29,15.90
2005,06,21,02,30,15.90
2005,06,21,02,31,15.90
2005,06,21,02,32,15.90
2005,06,21,02,33,15.90
2005,06,21,02,34,15.80
2005,06,21,02,35,15.80
2005,06,21,02,36,15.80
2005,06,21,02,37,15.80
2005,06,21,02,38,15.80
2005,06,21,02,39,15.80
2005,06,21,02,40,15.80
2005,06,21,02,41,15.70
2005,06,21,02,42,15.60
2005,06,21,02,43,15.60
2005,06,21,02,44,15.60
2005,06,21,02,45,15.50
2005,06,21,02,46,15.50
2005,06,21,02,47,15.40
2005,06,21,02,48,15.40
2005,06,21,02,49,15.40
2005,06,21,02,50,15.40
2005,06,21,02,51,15.30
2005,06,21,02,52,15.30
2005,06,21,02,53,15.30
2005,06,21,02,54,15.20
2005,06,21,02,55,15.20
2005,06,21,02,56,15.20
2005,06,21,02,57,15.20
2005,06,21,02,58,15.10
2005,06,21,02,59,15.10
2005,06,21,03,00,15.10
2005,06,21,03,01,15.10
2005,06,21,03,02,15.00
2005,06,21,03,03,15.00
2005,06,21,03,04,14.90
2005,06,21,03,05,14.90
2005,06,21,03,06,14.90
2005,06,21,03,07,14.90
2005,06,21,03,08,14.80
2005,06,21,03,09,14.80
2005,06,21,03,10,14.80
2005,06,21,03,11,14.80
2005,06,21,03,12,14.80
2005,06,21,03,13,14.80
2005,06,21,03,14,14.90
2005,06,21,03,15,14.90
2005,06,21,03,16,14.90
2005,06,21,03,17,14.90
2005,06,21,03,18,15.00
2005,06,21,03,19,15.00
2005,06,21,03,20,15.00
2005,06,21,03,21,15.10
2005,06,21,03,22,15.10
2005,06,21,03,23,15.10
2005,06,21,03,24,15.10
2005,06,21,03,25,15.10
2005,06,21,03,26,15.10
2005,06,21,03,27,15.10
2005,06,21,03,28,15.10
2005,06,21,03,29,15.20
2005,06,21,03,30,15.20
2005,06,21,03,31,15.20
2005,06,21,03,32,15.20
2005,06,21,03,33,15.20
2005,06,21,03,34,15.20
2005,06,21,03,35,15.20
2005,06,21,03,36,15.20
2005,06,21,03,37,15.20
2005,06,21,03,38,15.20
2005,06,21,03,39,15.20
2005,06,21,03,40,15.20
2005,06,21,03,41,15.20
2005,06,21,03,42,15.30
2005,06,21,03,43,15.30
2005,06,21,03,44,15.30
2005,06,21,03,45,15.30
2005,06,21,03,46,15.30
2005,06,21,03,47,15.30
2005,06,21,03,48,15.30
2005,06,21,03,49,15.30
2005,06,21,03,50,15.30
2005,06,21,03,51,15.30
2005,06,21,03,52,15.30
2005,06,21,03,53,15.30
2005,06,21,03,54,15.30
2005,06,21,03,55,15.30
2005,06,21,03,56,15.30
2005,06,21,03,57,15.30
2005,06,21,03,58,15.30
2005,06,21,03,59,15.30
2005,06,21,04,00,15.30
2005,06,21,04,01,15.30
2005,06,21,04,02,15.30
2005,06,21,04,03,15.30
2005,06,21,04,04,15.30
2005,06,21,04,05,15.40
2005,06,21,04,06,15.40
2005,06,21,04,07,15.40
2005,06,21,04,08,15.40
2005,06,21,04,09,15.40
2005,06,21,04,10,15.40
2005,06,21,04,11,15.40
2005,06,21,04,12,15.40
2005,06,21,04,13,15.40
2005,06,21,04,14,15.40
2005,06,21,04,15,15.40
2005,06,21,04,16,15.50
2005,06,21,04,17,15.50
2005,06,21,04,18,15.50
2005,06,21,04,19,15.50
2005,06,21,04,20,15.50
2005,06,21,04,21,15.50
2005,06,21,04,22,15.50
2005,06,21,04,23,15.50
2005,06,21,04,24,15.50
2005,06,21,04,25,15.50
2005,06,21,04,26,15.50
2005,06,21,04,27,15.50
2005,06,21,04,28,15.50
2005,06,21,04,29,15.50
2005,06,21,04,30,15.40
2005,06,21,04,31,15.40
2005,06,21,04,32,15.30
2005,06,21,04,33,15.30
2005,06,21,04,34,15.30
2005,06,21,04,35,15.30
2005,06,21,04,36,15.30
2005,06,21,04,37,15.30
2005,06,21,04,38,15.30
2005,06,21,04,39,15.30
2005,06,21,04,40,15.30
2005,06,21,04,41,15.30
2005,06,21,04,42,15.30
2005,06,21,04,43,15.30
2005,06,21,04,44,15.30
2005,06,21,04,45,15.30
2005,06,21,04,46,15.20
2005,06,21,04,47,15.20
2005,06,21,04,48,15.20
2005,06,21,04,49,15.30
2005,06,21,04,50,15.30
2005,06,21,04,51,15.30
2005,06,21,04,52,15.30
2005,06,21,04,53,15.30
2005,06,21,04,54,15.30
2005,06,21,04,55,15.30
2005,06,21,04,56,15.30
2005,06,21,04,57,15.30
2005,06,21,04,58,15.30
2005,06,21,04,59,15.30
2005,06,21,05,00,15.30
2005,06,21,05,01,15.30
2005,06,21,05,02,15.30
2005,06,21,05,03,15.30
2005,06,21,05,04,15.30
2005,06,21,05,05,15.30
2005,06,21,05,06,15.30
2005,06,21,05,07,15.30
2005,06,21,05,08,15.20
2005,06,21,05,09,15.20
2005,06,21,05,10,15.20
2005,06,21,05,11,15.10
2005,06,21,05,12,15.10
2005,06,21,05,13,15.10
2005,06,21,05,14,15.10
2005,06,21,05,15,15.10
2005,06,21,05,16,15.10
2005,06,21,05,17,15.10
2005,06,21,05,18,15.10
2005,06,21,05,19,15.10
2005,06,21,05,20,15.00
2005,06,21,05,21,15.00
2005,06,21,05,22,15.00
2005,06,21,05,23,14.90
2005,06,21,05,24,14.90
2005,06,21,05,25,14.80
2005,06,21,05,26,14.80
2005,06,21,05,27,14.80
2005,06,21,05,28,14.80
2005,06,21,05,29,14.80
2005,06,21,05,30,14.80
2005,06,21,05,31,14.70
2005,06,21,05,32,14.70
2005,06,21,05,33,14.70
2005,06,21,05,34,14.60
2005,06,21,05,35,14.60
2005,06,21,05,36,14.60
2005,06,21,05,37,14.60
2005,06,21,05,38,14.50
2005,06,21,05,39,14.50
2005,06,21,05,40,14.40
2005,06,21,05,41,14.40
2005,06,21,05,42,14.40
2005,06,21,05,43,14.40
2005,06,21,05,44,14.30
2005,06,21,05,45,14.30
2005,06,21,05,46,14.30
2005,06,21,05,47,14.30
2005,06,21,05,48,14.20
2005,06,21,05,49,14.20
2005,06,21,05,50,14.20
2005,06,21,05,51,14.20
2005,06,21,05,52,14.20
2005,06,21,05,53,14.10
2005,06,21,05,54,14.10
2005,06,21,05,55,14.10
2005,06,21,05,56,14.10
2005,06,21,05,57,14.10
2005,06,21,05,58,14.10
2005,06,21,05,59,14.10
2005,06,21,06,00,14.10
2005,06,21,06,01,14.10
2005,06,21,06,02,14.10
2005,06,21,06,03,14.10
2005,06,21,06,04,14.20
2005,06,21,06,05,14.20
2005,06,21,06,06,14.20
2005,06,21,06,07,14.30
2005,06,21,06,08,14.40
2005,06,21,06,09,14.40
2005,06,21,06,10,14.50
2005,06,21,06,11,14.50
2005,06,21,06,12,14.50
2005,06,21,06,13,14.50
2005,06,21,06,14,14.40
2005,06,21,06,15,14.50
2005,06,21,06,16,14.50
2005,06,21,06,17,14.50
2005,06,21,06,18,14.50
2005,06,21,06,19,14.50
2005,06,21,06,20,14.50
2005,06,21,06,21,14.40
2005,06,21,06,22,14.40
2005,06,21,06,23,14.40
2005,06,21,06,24,14.50
2005,06,21,06,25,14.50
2005,06,21,06,26,14.50
2005,06,21,06,27,14.60
2005,06,21,06,28,14.70
2005,06,21,06,29,14.80
2005,06,21,06,30,15.00
2005,06,21,06,31,15.10
2005,06,21,06,32,15.20
2005,06,21,06,33,15.30
2005,06,21,06,34,15.40
2005,06,21,06,35,15.40
2005,06,21,06,36,15.50
2005,06,21,06,37,15.50
2005,06,21,06,38,15.50
2005,06,21,06,39,15.50
2005,06,21,06,40,15.60
2005,06,21,06,41,15.60
2005,06,21,06,42,15.70
2005,06,21,06,43,15.80
2005,06,21,06,44,15.90
2005,06,21,06,45,16.00
2005,06,21,06,46,16.10
2005,06,21,06,47,16.20
2005,06,21,06,48,16.30
2005,06,21,06,49,16.40
2005,06,21,06,50,16.40
2005,06,21,06,51,16.50
2005,06,21,06,52,16.60
2005,06,21,06,53,16.60
2005,06,21,06,54,16.60
2005,06,21,06,55,16.60
2005,06,21,06,56,16.60
2005,06,21,06,57,16.60
2005,06,21,06,58,16.60
2005,06,21,06,59,16.60
2005,06,21,07,00,16.60
2005,06,21,07,01,16.70
2005,06,21,07,02,16.70
2005,06,21,07,03,16.80
2005,06,21,07,04,16.90
2005,06,21,07,05,17.00
2005,06,21,07,06,17.20
2005,06,21,07,07,17.30
2005,06,21,07,08,17.40
2005,06,21,07,09,17.50
2005,06,21,07,10,17.70
2005,06,21,07,11,17.70
2005,06,21,07,12,17.80
2005,06,21,07,13,17.90
2005,06,21,07,14,17.90
2005,06,21,07,15,18.00
2005,06,21,07,16,18.10
2005,06,21,07,17,18.10
2005,06,21,07,18,18.20
2005,06,21,07,19,18.20
2005,06,21,07,20,18.20
2005,06,21,07,21,18.20
2005,06,21,07,22,18.20
2005,06,21,07,23,18.30
2005,06,21,07,24,18.30
2005,06,21,07,25,18.40
2005,06,21,07,26,18.50
2005,06,21,07,27,18.60
2005,06,21,07,28,18.70
2005,06,21,07,29,18.70
2005,06,21,07,30,18.90
2005,06,21,07,31,18.90
2005,06,21,07,32,19.10
2005,06,21,07,33,19.10
2005,06,21,07,34,19.20
2005,06,21,07,35,19.30
2005,06,21,07,36,19.30
2005,06,21,07,37,19.40
2005,06,21,07,38,19.40
2005,06,21,07,39,19.40
2005,06,21,07,40,19.40
2005,06,21,07,41,19.30
2005,06,21,07,42,19.30
2005,06,21,07,43,19.30
2005,06,21,07,44,19.30
2005,06,21,07,45,19.30
2005,06,21,07,46,19.40
2005,06,21,07,47,19.40
2005,06,21,07,48,19.40
2005,06,21,07,49,19.40
2005,06,21,07,50,19.40
2005,06,21,07,51,19.50
2005,06,21,07,52,19.40
2005,06,21,07,53,19.40
2005,06,21,07,54,19.40
2005,06,21,07,55,19.40
2005,06,21,07,56,19.40
2005,06,21,07,57,19.30
2005,06,21,07,58,19.30
2005,06,21,07,59,19.20
2005,06,21,08,00,19.20
2005,06,21,08,01,19.10
2005,06,21,08,02,19.10
2005,06,21,08,03,19.10
2005,06,21,08,04,19.10
2005,06,21,08,05,19.10
2005,06,21,08,06,19.10
2005,06,21,08,07,19.10
2005,06,21,08,08,19.10
2005,06,21,08,09,19.10
2005,06,21,08,10,19.10
2005,06,21,08,11,19.00
2005,06,21,08,12,18.90
2005,06,21,08,13,18.90
2005,06,21,08,14,18.80
2005,06,21,08,15,18.80
2005,06,21,08,16,18.80
2005,06,21,08,17,18.80
2005,06,21,08,18,18.80
2005,06,21,08,19,18.80
2005,06,21,08,20,18.80
2005,06,21,08,21,18.80
2005,06,21,08,22,18.80
2005,06,21,08,23,18.90
2005,06,21,08,24,18.90
2005,06,21,08,25,19.00
2005,06,21,08,26,19.10
2005,06,21,08,27,19.10
2005,06,21,08,28,19.10
2005,06,21,08,29,19.10
2005,06,21,08,30,19.10
2005,06,21,08,31,19.20
2005,06,21,08,32,19.20
2005,06,21,08,33,19.10
2005,06,21,08,34,19.20
2005,06,21,08,35,19.20
2005,06,21,08,36,19.20
2005,06,21,08,37,19.30
2005,06,21,08,38,19.30
2005,06,21,08,39,19.40
2005,06,21,08,40,19.40
2005,06,21,08,41,19.40
2005,06,21,08,42,19.40
2005,06,21,08,43,19.40
2005,06,21,08,44,19.50
2005,06,21,08,45,19.50
2005,06,21,08,46,19.50
2005,06,21,08,47,19.50
2005,06,21,08,48,19.60
2005,06,21,08,49,19.60
2005,06,21,08,50,19.60
2005,06,21,08,51,19.60
2005,06,21,08,52,19.60
2005,06,21,08,53,19.70
2005,06,21,08,54,19.70
2005,06,21,08,55,19.80
2005,06,21,08,56,19.90
2005,06,21,08,57,19.90
2005,06,21,08,58,19.90
2005,06,21,08,59,20.10
2005,06,21,09,00,20.20
2005,06,21,09,01,20.20
2005,06,21,09,02,20.20
2005,06,21,09,03,20.20
2005,06,21,09,04,20.30
2005,06,21,09,05,20.40
2005,06,21,09,06,20.40
2005,06,21,09,07,20.40
2005,06,21,09,15,19.60
2005,06,21,09,16,19.60
2005,06,21,09,17,19.60
2005,06,21,09,18,19.60
2005,06,21,09,19,19.60
2005,06,21,09,20,19.60
2005,06,21,09,21,19.60
2005,06,21,09,22,19.60
2005,06,21,09,23,19.60
2005,06,21,09,24,19.60
2005,06,21,09,25,19.60
2005,06,21,09,26,19.60
2005,06,21,09,27,19.60
2005,06,21,09,28,19.60
2005,06,21,09,29,19.60
2005,06,21,09,30,19.60
2005,06,21,09,31,19.60
2005,06,21,09,32,19.60
2005,06,21,09,33,19.60
2005,06,21,09,34,19.70
2005,06,21,09,35,19.70
2005,06,21,09,36,19.80
2005,06,21,09,37,19.80
2005,06,21,09,38,19.80
2005,06,21,09,39,19.80
2005,06,21,09,40,19.90
2005,06,21,09,41,19.90
2005,06,21,09,42,19.90
2005,06,21,09,43,19.90
2005,06,21,09,44,19.90
2005,06,21,09,45,19.90
2005,06,21,09,46,20.00
2005,06,21,09,47,20.10
2005,06,21,09,48,20.10
2005,06,21,09,49,20.20
2005,06,21,09,50,20.30
2005,06,21,09,51,20.30
2005,06,21,09,52,20.40
2005,06,21,09,53,20.50
2005,06,21,09,54,20.50
2005,06,21,09,55,20.60
2005,06,21,09,56,20.70
2005,06,21,09,57,20.70
2005,06,21,09,58,20.70
2005,06,21,09,59,20.80
2005,06,21,10,00,20.80
2005,06,21,10,01,20.80
2005,06,21,10,02,20.70
2005,06,21,10,03,20.70
2005,06,21,10,04,20.70
2005,06,21,10,05,20.70
2005,06,21,10,06,20.80
2005,06,21,10,07,20.90
2005,06,21,10,08,21.00
2005,06,21,10,09,21.00
2005,06,21,10,10,21.10
2005,06,21,10,11,21.20
2005,06,21,10,12,21.30
2005,06,21,10,13,21.30
2005,06,21,10,14,21.50
2005,06,21,10,15,21.60
2005,06,21,10,16,21.70
2005,06,21,10,17,21.70
2005,06,21,10,18,21.70
2005,06,21,10,19,21.80
2005,06,21,10,20,21.80
2005,06,21,10,21,21.90
2005,06,21,10,22,21.90
2005,06,21,10,23,21.80
2005,06,21,10,24,21.60
2005,06,21,10,25,21.40
2005,06,21,10,26,21.20
2005,06,21,10,27,21.00
2005,06,21,10,28,21.00
2005,06,21,10,29,20.90
2005,06,21,10,30,21.00
2005,06,21,10,31,21.00
2005,06,21,10,32,21.00
2005,06,21,10,33,21.10
2005,06,21,10,34,21.20
2005,06,21,10,35,21.30
2005,06,21,10,36,21.40
2005,06,21,10,37,21.40
2005,06,21,10,38,21.50
2005,06,21,10,39,21.70
2005,06,21,10,40,21.80
2005,06,21,10,41,21.90
2005,06,21,10,42,21.90
2005,06,21,10,43,22.00
2005,06,21,10,44,21.90
2005,06,21,10,45,21.80
2005,06,21,10,46,21.60
2005,06,21,10,47,21.40
2005,06,21,10,48,21.20
2005,06,21,10,49,21.10
2005,06,21,10,50,21.10
2005,06,21,10,51,21.10
2005,06,21,10,52,21.20
2005,06,21,10,53,21.30
2005,06,21,10,54,21.30
2005,06,21,10,55,21.30
2005,06,21,10,56,21.30
2005,06,21,10,57,21.30
2005,06,21,10,58,21.30
2005,06,21,10,59,21.30
2005,06,21,11,00,21.30
2005,06,21,11,01,21.40
2005,06,21,11,02,21.50
2005,06,21,11,03,21.60
2005,06,21,11,04,21.60
2005,06,21,11,05,21.70
2005,06,21,11,06,21.70
2005,06,21,11,07,21.80
2005,06,21,11,08,21.80
2005,06,21,11,09,21.80
2005,06,21,11,10,21.80
2005,06,21,11,11,21.80
2005,06,21,11,12,21.80
2005,06,21,11,13,22.00
2005,06,21,11,14,22.10
2005,06,21,11,15,22.20
2005,06,21,11,16,22.20
2005,06,21,11,17,22.30
2005,06,21,11,18,22.40
2005,06,21,11,19,22.40
2005,06,21,11,20,22.50
2005,06,21,11,21,22.60
2005,06,21,11,22,22.70
2005,06,21,11,23,22.70
2005,06,21,11,24,22.70
2005,06,21,11,25,22.60
2005,06,21,11,26,22.60
2005,06,21,11,27,22.70
2005,06,21,11,28,22.60
2005,06,21,11,29,22.50
2005,06,21,11,30,22.40
2005,06,21,11,31,22.30
2005,06,21,11,32,22.20
2005,06,21,11,33,22.20
2005,06,21,11,34,22.10
2005,06,21,11,35,22.10
2005,06,21,11,36,22.00
2005,06,21,11,37,22.10
2005,06,21,11,38,22.10
2005,06,21,11,39,22.30
2005,06,21,11,40,22.40
2005,06,21,11,41,22.60
2005,06,21,11,42,22.70
2005,06,21,11,43,22.80
2005,06,21,11,44,22.90
2005,06,21,11,45,23.00
2005,06,21,11,46,23.10
2005,06,21,11,47,23.10
2005,06,21,11,48,23.20
2005,06,21,11,49,23.20
2005,06,21,11,50,23.30
2005,06,21,11,51,23.30
2005,06,21,11,52,23.30
2005,06,21,11,53,23.40
2005,06,21,11,54,23.40
2005,06,21,11,55,23.40
2005,06,21,11,56,23.40
2005,06,21,11,57,23.40
2005,06,21,11,58,23.30
2005,06,21,11,59,23.30
2005,06,21,12,00,23.30
2005,06,21,12,01,23.30
2005,06,21,12,02,23.30
2005,06,21,12,03,23.30
2005,06,21,12,04,23.30
2005,06,21,12,05,23.20
2005,06,21,12,06,23.20
2005,06,21,12,07,23.20
2005,06,21,12,08,23.20
2005,06,21,12,09,23.10
2005,06,21,12,10,23.10
2005,06,21,12,11,23.10
2005,06,21,12,12,23.00
2005,06,21,12,13,22.90
2005,06,21,12,14,22.90
2005,06,21,12,15,22.90
2005,06,21,12,16,22.90
2005,06,21,12,17,22.80
2005,06,21,12,18,22.80
2005,06,21,12,19,22.70
2005,06,21,12,20,22.70
2005,06,21,12,21,22.70
2005,06,21,12,22,22.70
2005,06,21,12,23,22.70
2005,06,21,12,24,22.70
2005,06,21,12,25,22.60
2005,06,21,12,26,22.60
2005,06,21,12,27,22.40
2005,06,21,12,28,22.40
2005,06,21,12,29,22.40
2005,06,21,12,30,22.50
2005,06,21,12,31,22.50
2005,06,21,12,32,22.50
2005,06,21,12,33,22.60
2005,06,21,12,34,22.60
2005,06,21,12,35,22.70
2005,06,21,12,36,22.70
2005,06,21,12,37,22.80
2005,06,21,12,38,22.90
2005,06,21,12,39,22.90
2005,06,21,12,40,23.10
2005,06,21,12,41,23.10
2005,06,21,12,42,23.10
2005,06,21,12,43,23.20
2005,06,21,12,44,23.30
2005,06,21,12,45,23.30
2005,06,21,12,46,23.20
2005,06,21,12,47,23.20
2005,06,21,12,48,23.10
2005,06,21,12,49,22.90
2005,06,21,12,50,22.80
2005,06,21,12,51,22.80
2005,06,21,12,52,22.80
2005,06,21,12,53,22.70
2005,06,21,12,54,22.70
2005,06,21,12,55,22.60
2005,06,21,12,56,22.60
2005,06,21,12,57,22.60
2005,06,21,12,58,22.50
2005,06,21,12,59,22.50
2005,06,21,13,00,22.50
2005,06,21,13,01,22.50
2005,06,21,13,02,22.40
2005,06,21,13,03,22.40
2005,06,21,13,04,22.40
2005,06,21,13,05,22.40
2005,06,21,13,06,22.40
2005,06,21,13,07,22.30
2005,06,21,13,08,22.30
2005,06,21,13,09,22.30
2005,06,21,13,10,22.30
2005,06,21,13,11,22.30
2005,06,21,13,12,22.30
2005,06,21,13,13,22.10
2005,06,21,13,14,22.00
2005,06,21,13,15,22.00
2005,06,21,13,16,22.00
2005,06,21,13,17,21.90
2005,06,21,13,18,21.80
2005,06,21,13,19,21.80
2005,06,21,13,20,21.80
2005,06,21,13,21,21.80
2005,06,21,13,22,22.00
2005,06,21,13,23,22.00
2005,06,21,13,24,22.10
2005,06,21,13,25,22.00
2005,06,21,13,26,22.00
2005,06,21,13,27,22.00
2005,06,21,13,28,21.90
2005,06,21,13,29,21.90
2005,06,21,13,30,21.80
2005,06,21,13,31,21.70
2005,06,21,13,32,21.70
2005,06,21,13,33,21.60
2005,06,21,13,34,21.60
2005,06,21,13,35,21.50
2005,06,21,13,36,21.40
2005,06,21,13,37,21.50
2005,06,21,13,38,21.60
2005,06,21,13,39,21.60
2005,06,21,13,40,21.60
2005,06,21,13,41,21.60
2005,06,21,13,42,21.60
2005,06,21,13,43,21.60
2005,06,21,13,44,21.60
2005,06,21,13,45,21.60
2005,06,21,13,46,21.60
2005,06,21,13,47,21.60
2005,06,21,13,48,21.60
2005,06,21,13,49,21.60
2005,06,21,13,50,21.70
2005,06,21,13,51,21.80
2005,06,21,13,52,21.80
2005,06,21,13,53,21.90
2005,06,21,13,54,22.00
2005,06,21,13,55,22.10
2005,06,21,13,56,22.20
2005,06,21,13,57,22.30
2005,06,21,13,58,22.30
2005,06,21,13,59,22.30
2005,06,21,14,00,22.20
2005,06,21,14,01,22.20
2005,06,21,14,02,22.20
2005,06,21,14,03,22.20
2005,06,21,14,04,22.10
2005,06,21,14,05,22.10
2005,06,21,14,06,22.10
2005,06,21,14,07,22.00
2005,06,21,14,08,22.00
2005,06,21,14,09,22.00
2005,06,21,14,10,22.10
2005,06,21,14,11,22.20
2005,06,21,14,12,22.20
2005,06,21,14,13,22.30
2005,06,21,14,14,22.20
2005,06,21,14,15,22.30
2005,06,21,14,16,22.30
2005,06,21,14,17,22.40
2005,06,21,14,18,22.50
2005,06,21,14,19,22.50
2005,06,21,14,20,22.50
2005,06,21,14,21,22.60
2005,06,21,14,22,22.60
2005,06,21,14,23,22.50
2005,06,21,14,24,22.50
2005,06,21,14,25,22.60
2005,06,21,14,26,22.60
2005,06,21,14,27,22.70
2005,06,21,14,28,22.70
2005,06,21,14,29,22.80
2005,06,21,14,30,22.80
2005,06,21,14,31,22.90
2005,06,21,14,32,22.90
2005,06,21,14,33,22.90
2005,06,21,14,34,22.90
2005,06,21,14,35,22.90
2005,06,21,14,36,22.90
2005,06,21,14,37,22.90
2005,06,21,14,38,22.80
2005,06,21,14,39,22.80
2005,06,21,14,40,22.80
2005,06,21,14,41,22.70
2005,06,21,14,42,22.70
2005,06,21,14,43,22.70
2005,06,21,14,44,22.70
2005,06,21,14,45,22.80
2005,06,21,14,46,22.80
2005,06,21,14,47,22.80
2005,06,21,14,48,22.90
2005,06,21,14,49,22.90
2005,06,21,14,50,23.00
2005,06,21,14,51,23.10
2005,06,21,14,52,23.10
2005,06,21,14,53,23.00
2005,06,21,14,54,22.90
2005,06,21,14,55,22.90
2005,06,21,14,56,22.90
2005,06,21,14,57,22.70
2005,06,21,14,58,22.60
2005,06,21,14,59,22.40
2005,06,21,15,00,22.30
2005,06,21,15,01,22.20
2005,06,21,15,02,22.20
2005,06,21,15,03,22.20
2005,06,21,15,04,22.30
2005,06,21,15,05,22.30
2005,06,21,15,06,22.30
2005,06,21,15,07,22.20
2005,06,21,15,08,22.20
2005,06,21,15,09,22.20
2005,06,21,15,10,22.20
2005,06,21,15,11,22.20
2005,06,21,15,12,22.20
2005,06,21,15,13,22.30
2005,06,21,15,14,22.30
2005,06,21,15,15,22.30
2005,06,21,15,16,22.30
2005,06,21,15,17,22.30
2005,06,21,15,18,22.30
2005,06,21,15,19,22.30
2005,06,21,15,20,22.20
2005,06,21,15,21,22.20
2005,06,21,15,22,22.30
2005,06,21,15,23,22.30
2005,06,21,15,24,22.40
2005,06,21,15,25,22.40
2005,06,21,15,26,22.40
2005,06,21,15,27,22.40
2005,06,21,15,28,22.40
2005,06,21,15,29,22.40
2005,06,21,15,30,22.40
2005,06,21,15,31,22.40
2005,06,21,15,32,22.40
2005,06,21,15,33,22.40
2005,06,21,15,34,22.40
2005,06,21,15,35,22.40
2005,06,21,15,36,22.40
2005,06,21,15,37,22.50
2005,06,21,15,38,22.50
2005,06,21,15,39,22.50
2005,06,21,15,40,22.50
2005,06,21,15,41,22.60
2005,06,21,15,42,22.60
2005,06,21,15,43,22.60
2005,06,21,15,44,22.60
2005,06,21,15,45,22.60
2005,06,21,15,46,22.60
2005,06,21,15,47,22.60
2005,06,21,15,48,22.70
2005,06,21,15,49,22.70
2005,06,21,15,50,22.70
2005,06,21,15,51,22.70
2005,06,21,15,52,22.70
2005,06,21,15,53,22.70
2005,06,21,15,54,22.70
2005,06,21,15,55,22.60
2005,06,21,15,56,22.60
2005,06,21,15,57,22.40
2005,06,21,15,58,22.30
2005,06,21,15,59,22.20
2005,06,21,16,00,22.00
2005,06,21,16,01,21.90
2005,06,21,16,02,21.60
2005,06,21,16,03,21.40
2005,06,21,16,04,21.40
2005,06,21,16,05,21.40
2005,06,21,16,06,21.00
2005,06,21,16,07,20.80
2005,06,21,16,08,20.80
2005,06,21,16,09,20.70
2005,06,21,16,10,20.50
2005,06,21,16,11,20.50
2005,06,21,16,12,20.30
2005,06,21,16,13,20.20
2005,06,21,16,14,20.20
2005,06,21,16,15,20.20
2005,06,21,16,16,20.10
2005,06,21,16,17,20.00
2005,06,21,16,18,19.90
2005,06,21,16,19,19.90
2005,06,21,16,20,19.90
2005,06,21,16,21,19.90
2005,06,21,16,22,19.90
2005,06,21,16,23,19.90
2005,06,21,16,24,20.10
2005,06,21,16,25,20.10
2005,06,21,16,26,20.20
2005,06,21,16,27,20.20
2005,06,21,16,28,20.20
2005,06,21,16,29,20.20
2005,06,21,16,30,20.20
2005,06,21,16,31,20.20
2005,06,21,16,32,20.20
2005,06,21,16,33,20.10
2005,06,21,16,34,20.00
2005,06,21,16,35,19.90
2005,06,21,16,36,19.90
2005,06,21,16,37,19.80
2005,06,21,16,38,19.60
2005,06,21,16,39,19.50
2005,06,21,16,40,19.40
2005,06,21,16,41,19.30
2005,06,21,16,42,19.20
2005,06,21,16,43,19.10
2005,06,21,16,44,18.90
2005,06,21,16,45,18.70
2005,06,21,16,46,18.60
2005,06,21,16,47,18.50
2005,06,21,16,48,18.40
2005,06,21,16,49,18.30
2005,06,21,16,50,18.30
2005,06,21,16,51,18.20
2005,06,21,16,52,18.20
2005,06,21,16,53,18.00
2005,06,21,16,54,17.90
2005,06,21,16,55,17.70
2005,06,21,16,56,17.50
2005,06,21,16,57,17.20
2005,06,21,16,58,17.00
2005,06,21,16,59,17.00
2005,06,21,17,00,16.70
2005,06,21,17,01,16.60
2005,06,21,17,02,16.60
2005,06,21,17,03,16.50
2005,06,21,17,04,16.40
2005,06,21,17,05,16.40
2005,06,21,17,06,16.40
2005,06,21,17,07,16.40
2005,06,21,17,08,16.40
2005,06,21,17,09,16.40
2005,06,21,17,10,16.40
2005,06,21,17,11,16.40
2005,06,21,17,12,16.40
2005,06,21,17,13,16.40
2005,06,21,17,14,16.40
2005,06,21,17,15,16.40
2005,06,21,17,16,16.40
2005,06,21,17,17,16.40
2005,06,21,17,18,16.40
2005,06,21,17,19,16.40
2005,06,21,17,20,16.40
2005,06,21,17,21,16.40
2005,06,21,17,22,16.40
2005,06,21,17,23,16.40
2005,06,21,17,24,16.40
2005,06,21,17,25,16.40
2005,06,21,17,26,16.40